Volver al catálogo

PEGASUS DEB

ActivoPO
NORAD 29033·DEBRIS·🇺🇸 United States

Lanzado May 19, 1994 desde Vandenberg Space Force Base

Loading…

Próximos Pases (próximas 24 horas)

TLE

ActualizadoSource: Space-Track

Época: Sep 14, 2026, 14:57 UTC

1 29033U 94029AEQ 26257.62337060  .00007690  00000-0  95365-3 0  9993
2 29033  81.9594 219.6061 0155824 103.8931 257.9666 14.74209572242291

Sigue PEGASUS DEB en tiempo real con AllMySat

Download on the App Store